User: anonymous   Login
Location: Artiguedieu
(43.5000°N, 0.5454°E)
Time: 16:37:58
(UTC+00:00)
Language:

HuskySat-1 - Orbit

View from above orbital plane
View from above orbital plane
View from above satellite
View from above satellite

Ground track
Ground track

The orbit data is extracted from the following two-line orbital elements,

1 45117U 19071G   21267.75263882  .00009138  00000-0  25510-3 0  9992
2 45117  51.6403 273.6255 0009139 297.3578  62.6475 15.37428408 92454
Epoch (UTC): 24 September 2021 18:03:47
Eccentricity: 0.0009139
inclination: 51.6403°
perigee height: 447 km
apogee height: 460 km
right ascension of ascending node: 273.6255°
argument of perigee: 297.3578°
revolutions per day: 15.37428408
mean anomaly at epoch: 62.6475°
orbit number at epoch: 9245

The dashed part of the orbit path shows where the satellite is in the earth's shadow,  

DLR